Miscellaneous Local Product
Issued by NWS Hastings, NE

Home | Current Version | Previous Version | Graphics & Text | Print | Product List | Glossary On
Versions: 1 2 3 4 5 6 7 8 9 10 11 12 13 14 15 16 17 18 19 20 21 22 23 24 25 26 27 28 29 30 31 32 33 34 35 36 37 38 39 40 41 42 43 44 45 46 47 48 49 50
000
AXUS43 KGID 290102
MISGRI

GID CWA HOURLY WEATHER ROUNDUP
NATIONAL WEATHER SERVICE HASTINGS NE
800 PM CDT THU JUL 28 2016

NOTE: "FAIR" INDICATES FEW OR NO CLOUDS BELOW 12,000 FEET WITH NO
SIGNIFICANT WEATHER AND/OR OBSTRUCTIONS TO VISIBILITY.

...SOUTH CENTRAL NEBRASKA...

CITY           SKY/WX    TMP DP  RH WIND       PRES   REMARKS
GRAND ISLAND   CLOUDY    73  67  81 NE7       30.02F
HASTINGS       CLOUDY    70  66  87 N3        30.02S
ORD            CLOUDY    75  62  64 E7        30.03S
YORK           CLOUDY    73  68  83 NE9       30.01S
AURORA         CLOUDY    72  69  89 NE5       30.01S
LEXINGTON      PTCLDY    73  65  75 NW3       30.06S
HOLDREGE       CLOUDY    72  69  89 N7        30.04S
HEBRON         CLOUDY    74  69  84 E3        29.96F

...NEBRASKA PANHANDLE...

CITY           SKY/WX    TMP DP  RH WIND       PRES   REMARKS
CHADRON        SUNNY     77  56  48 NE8       30.10S
ALLIANCE       MOSUNNY   76  54  46 CALM      30.13S
SCOTTSBLUFF    SUNNY     79  57  46 E8        30.14S
SIDNEY         CLOUDY    75  53  46 NE12      30.19R

...WESTERN AND NORTH CENTRAL NEBRASKA...

CITY           SKY/WX    TMP DP  RH WIND       PRES   REMARKS
VALENTINE      CLOUDY    75  60  59 NE12G18   30.08R THUNDER
AINSWORTH      CLOUDY    66  63  87 E9        30.09S
ONEILL         CLOUDY    75  62  64 CALM      30.06R
BROKEN BOW     CLOUDY    72  66  81 E6        30.06S
IMPERIAL       SUNNY     72  61  68 NE8       30.12R
NORTH PLATTE   SUNNY     74  60  61 NE3       30.09S
MCCOOK         MOCLDY    74  61  63 NE10      30.08R

...EASTERN NEBRASKA...

CITY           SKY/WX    TMP DP  RH WIND       PRES   REMARKS
NORFOLK        CLOUDY    75  59  57 NE6       30.02S
SO SIOUX CITY  CLOUDY    78  63  59 NE10      30.00R
TEKAMAH        CLOUDY    77  64  64 NE3       30.00R
COLUMBUS       CLOUDY    73  61  64 NE3       30.01F
ALBION         CLOUDY    73  65  74 N3        30.03S
OMAHA EPPLEY   CLOUDY    78  63  59 NE8       29.99R
MILLARD        CLOUDY    79  63  57 N5        29.98F
LINCOLN        CLOUDY    78  63  59 NE8       30.00R
NEBRASKA CITY  CLOUDY    76  66  70 NE5       29.98R
BEATRICE       CLOUDY    79  65  63 NE6       29.99R
FALLS CITY     PTCLDY    78  69  73 NW3       29.96R

...NORTHERN KANSAS...

CITY           SKY/WX    TMP DP  RH WIND       PRES   REMARKS
GOODLAND       SUNNY     75  61  61 NE10      30.10R
HILL CITY      CLEAR     74  63  68 N9        30.02F
NORTON         MOCLDY    70  61  73 N8        30.03
SMITH CENTER   PTCLDY    66  64  94 W5        29.99R
BELOIT         CLOUDY    70  64  83 E16G23    29.89F
HAYS           PTCLDY    72  57  60 E9        30.02R
RUSSELL        CLOUDY    70  63  78 E10       29.99F
CONCORDIA      RAIN      68  65  90 SE8       29.98F
SALINA         MOCLDY    72  67  84 N13       29.99F
TOPEKA         CLEAR     82  69  64 N6        29.93S



USA.gov is the U.S. government's official web portal to all federal, state and local government web resources and services.